Location: Aulnoy
(48.8410°N, 3.0967°E)
Time: 20:10:45
(UTC+00:00)

Cosmos 2219 Rocket - Pass Details

Date: 09 February 2023
Orbit: 826 x 848 km, 71.0° (Epoch: 21 March)

Event Time Altitude Azimuth Distance (km) Brightness Sun altitude
Rises 18:08:07 0° 203° (SSW) 3,353 5.8 -11.9°
Reaches altitude 10° 18:10:31 10° 202° (SSW) 2,426 5.0 -12.3°
Maximum altitude 18:16:05 82° 116° (ESE) 844 2.1 -13.2°
Drops below altitude 10° 18:21:43 10° 30° (NNE) 2,453 4.3 -14.2°
Enters shadow 18:23:25 - 29° (NNE) 3,103 4.8 -14.4°
